TimeEST,TemperatureF,Dew PointF,Humidity,Sea Level PressureIn,VisibilityMPH,Wind Direction,Wind SpeedMPH,Gust SpeedMPH,PrecipitationIn,Events,Conditions,WindDirDegrees,DateUTC
12:18 AM,32.0,30.2,93,30.17,10.0,WNW,9.2,16.1,N/A,,Clear,290,2013-01-18 05:18:00
12:36 AM,32.0,30.2,93,30.18,10.0,NW,19.6,23.0,N/A,,Clear,320,2013-01-18 05:36:00
12:56 AM,30.2,30.2,100,30.20,10.0,NW,17.3,21.9,N/A,,Clear,320,2013-01-18 05:56:00
1:16 AM,30.2,30.2,100,30.22,10.0,WNW,8.1,-,N/A,,Scattered Clouds,300,2013-01-18 06:16:00
1:36 AM,30.2,30.2,100,30.24,10.0,West,4.6,-,N/A,,Overcast,280,2013-01-18 06:36:00
1:56 AM,30.2,30.2,100,30.24,10.0,West,3.5,-,N/A,,Overcast,260,2013-01-18 06:56:00
2:17 AM,30.2,28.4,93,30.24,10.0,West,4.6,-,N/A,,Overcast,260,2013-01-18 07:17:00
2:56 AM,30.2,28.4,93,30.23,10.0,West,10.4,-,N/A,,Overcast,280,2013-01-18 07:56:00
3:38 AM,30.2,28.4,93,30.24,10.0,West,8.1,-,N/A,,Mostly Cloudy,280,2013-01-18 08:38:00
3:57 AM,30.2,28.4,93,30.24,10.0,West,6.9,16.1,N/A,,Mostly Cloudy,280,2013-01-18 08:57:00
4:38 AM,30.2,28.4,93,30.24,10.0,WNW,10.4,16.1,N/A,,Overcast,290,2013-01-18 09:38:00
4:58 AM,30.2,28.4,93,30.24,10.0,WNW,6.9,17.3,N/A,,Overcast,290,2013-01-18 09:58:00
5:36 AM,28.4,26.6,93,30.25,10.0,WNW,8.1,-,N/A,,Mostly Cloudy,290,2013-01-18 10:36:00
5:59 AM,28.4,26.6,93,30.26,10.0,WNW,6.9,-,N/A,,Scattered Clouds,290,2013-01-18 10:59:00
6:16 AM,28.4,26.6,93,30.27,10.0,WNW,9.2,-,N/A,,Clear,290,2013-01-18 11:16:00
6:39 AM,28.4,26.6,93,30.28,10.0,WNW,6.9,-,N/A,,Clear,290,2013-01-18 11:39:00
6:58 AM,28.4,26.6,93,30.30,10.0,West,6.9,-,N/A,,Clear,280,2013-01-18 11:58:00
7:16 AM,28.4,24.8,86,30.30,10.0,WNW,5.8,-,N/A,,Clear,290,2013-01-18 12:16:00
7:36 AM,26.6,24.8,93,30.32,10.0,WNW,6.9,-,N/A,,Clear,290,2013-01-18 12:36:00
7:56 AM,26.6,24.8,93,30.33,10.0,West,6.9,-,N/A,,Clear,280,2013-01-18 12:56:00
8:18 AM,28.4,24.8,86,30.35,10.0,West,6.9,-,N/A,,Clear,280,2013-01-18 13:18:00
8:56 AM,28.4,24.8,86,30.37,10.0,WNW,9.2,-,N/A,,Clear,290,2013-01-18 13:56:00
9:37 AM,28.4,24.8,86,30.39,10.0,West,8.1,-,N/A,,Clear,280,2013-01-18 14:37:00
9:57 AM,30.2,24.8,80,30.41,10.0,WSW,4.6,-,N/A,,Clear,250,2013-01-18 14:57:00
12:18 PM,33.8,26.6,75,30.43,10.0,WSW,5.8,-,N/A,,Clear,250,2013-01-18 17:18:00
12:36 PM,33.8,26.6,75,30.43,10.0,WSW,5.8,-,N/A,,Clear,250,2013-01-18 17:36:00
12:56 PM,33.8,26.6,75,30.43,10.0,WSW,5.8,-,N/A,,Clear,250,2013-01-18 17:56:00
1:16 PM,35.6,26.6,70,30.43,10.0,West,5.8,-,0.03,,Clear,260,2013-01-18 18:16:00
1:37 PM,35.6,26.6,70,30.43,10.0,West,4.6,-,0.06,,Clear,280,2013-01-18 18:37:00
2:17 PM,35.6,26.6,70,30.43,10.0,West,4.6,-,0.04,,Clear,280,2013-01-18 19:17:00
2:36 PM,35.6,24.8,65,30.43,10.0,West,4.6,-,0.07,,Clear,260,2013-01-18 19:36:00
2:58 PM,35.6,26.6,70,30.43,10.0,West,3.5,-,N/A,,Clear,260,2013-01-18 19:58:00
3:16 PM,35.6,26.6,70,30.44,10.0,WNW,5.8,-,N/A,,Clear,290,2013-01-18 20:16:00
3:38 PM,35.6,26.6,70,30.44,10.0,West,4.6,-,0.07,,Clear,270,2013-01-18 20:38:00
4:18 PM,35.6,26.6,70,30.44,10.0,WSW,3.5,-,0.03,,Clear,250,2013-01-18 21:18:00
4:36 PM,35.6,26.6,70,30.44,10.0,West,3.5,-,0.04,,Clear,280,2013-01-18 21:36:00
4:58 PM,33.8,26.6,75,30.45,10.0,SW,3.5,-,N/A,,Clear,220,2013-01-18 21:58:00
5:17 PM,33.8,26.6,75,30.45,10.0,Calm,Calm,-,N/A,,Clear,0,2013-01-18 22:17:00
5:36 PM,30.2,26.6,86,30.46,10.0,Calm,Calm,-,0.01,,Clear,0,2013-01-18 22:36:00
5:58 PM,28.4,26.6,93,30.46,10.0,Calm,Calm,-,N/A,,Clear,0,2013-01-18 22:58:00
6:16 PM,28.4,26.6,93,30.46,10.0,Calm,Calm,-,N/A,,Clear,0,2013-01-18 23:16:00
6:56 PM,28.4,26.6,93,30.47,10.0,Calm,Calm,-,N/A,,Clear,0,2013-01-18 23:56:00
7:18 PM,26.6,26.6,100,30.47,10.0,Calm,Calm,-,N/A,,Clear,0,2013-01-19 00:18:00
7:36 PM,26.6,26.6,100,30.47,10.0,Calm,Calm,-,N/A,,Clear,0,2013-01-19 00:36:00
7:56 PM,24.8,24.8,100,30.47,7.0,Calm,Calm,-,N/A,,Clear,0,2013-01-19 00:56:00
9:19 PM,24.8,24.8,100,30.46,7.0,Calm,Calm,-,N/A,,Clear,0,2013-01-19 02:19:00
9:38 PM,23.0,23.0,100,30.46,7.0,Calm,Calm,-,N/A,,Clear,0,2013-01-19 02:38:00
9:59 PM,21.2,21.2,100,30.45,7.0,Calm,Calm,-,N/A,,Clear,0,2013-01-19 02:59:00
10:18 PM,21.2,21.2,100,30.45,5.0,Calm,Calm,-,N/A,,Clear,0,2013-01-19 03:18:00
10:57 PM,21.2,21.2,100,30.44,0.8,Calm,Calm,-,N/A,,Mostly Cloudy,0,2013-01-19 03:57:00
11:16 PM,19.4,19.4,100,30.43,0.5,Calm,Calm,-,N/A,Fog,Light Freezing Fog,0,2013-01-19 04:16:00
11:36 PM,19.4,19.4,100,30.43,0.5,Calm,Calm,-,N/A,Fog,Light Freezing Fog,0,2013-01-19 04:36:00
11:57 PM,19.4,-9999,N/A,30.42,7.0,Calm,Calm,-,N/A,,Clear,0,2013-01-19 04:57:00